User: anonymous
Location: North Smoke Tower Site
(30.5430°N, 82.3390°W)
Time: 15:26:04
(UTC-04:00)
Language:

Cosmos 1980 Rocket - Orbit

View from above orbital plane
View from above orbital plane
View from above satellite
View from above satellite

Ground track
Ground track

The orbit data is extracted from the following two-line orbital elements,

1 19650U 88102B   14105.12903726 -.00000255  00000-0 -10564-3 0  2605
2 19650 070.9999 292.0955 0012787 154.3318 346.8830 14.15660538311958
Epoch (UTC): 15 April 2014 03:05:48
Eccentricity: 0.0012787
inclination: 70.9999°
perigee height: 831 km
apogee height: 849 km
right ascension of ascending node: 292.0955°
argument of perigee: 154.3318°
revolutions per day: 14.15660538
mean anomaly at epoch: 346.8830°
orbit number at epoch: 31195

The dashed part of the orbit path shows where the satellite is in the earth's shadow,  

DLR